[[{"header":{"parameterUnit":"m.s-1","parameterCategory":1,"la1":30.2991,"la2":30.254,"lo1":-89.0895,"lo2":-89.0444,"dy":0.0017,"dx":0.0017,"nx":28,"ny":28,"refTime":"2024-08-27T21:00:00:Z","depth":0,"parameterNumber":2,"parameterNumberName":"U-component_of_WINDS"},"data":[0,0,0,0,0,0,0,0,0,0,0,0,0,0,0,0,0,0,0,0,0,0,0,0,0,0,0,0,0,0,0,0,0,0,0,0,0,0,0,0,0,0,0,0,0,0,0,0,0,0,0,0,0,0,0,0,0,0,-2.7386,-2.7387,0,-2.7478,-2.7479,-2.748,-2.7498,-2.7497,-2.7497,-2.7496,-2.7587,-2.759,-2.7593,0,0,0,0,0,0,0,0,0,0,0,0,0,-2.7223,-2.7226,-2.7386,-2.7387,-2.7388,-2.7478,-2.7479,-2.748,-2.7498,-2.7497,-2.7496,-2.7496,-2.7586,-2.759,-2.7594,0,0,0,0,0,0,0,0,0,0,0,0,0,-2.7302,-2.7227,-2.7386,-2.7408,-2.7411,-2.7478,-2.7479,-2.7481,-2.7498,-2.7497,-2.7496,-2.7495,-2.7585,-2.759,-2.7594,-2.7644,0,0,-2.7608,-2.761,0,0,0,0,0,0,0,0,-2.7298,-2.7308,-2.7404,-2.7407,-2.741,-2.7476,-2.7455,-2.7536,-2.7499,-2.7465,-2.7496,-2.7495,-2.7551,-2.7558,-2.7578,-2.7649,-2.7653,-2.7609,-2.7612,-2.7614,-2.7615,0,0,0,0,0,0,0,-2.7292,-2.7304,-2.7422,-2.7405,-2.7409,-2.7413,-2.7423,-2.7471,-2.7513,-2.7468,-2.747,-2.748,-2.7552,-2.7573,-2.758,-2.7654,-2.7609,-2.7613,-2.7616,-2.7617,-2.777,-2.7771,0,0,0,0,0,0,-2.7283,-2.7299,-2.7419,-2.7425,-2.735,-2.7416,-2.7428,-2.7456,-2.7512,-2.752,-2.7481,-2.7481,-2.7566,-2.7575,-2.7583,-2.7646,-2.7614,-2.7618,-2.7621,-2.7769,-2.777,-2.7772,0,0,0,0,0,0,-2.7279,-2.7294,-2.7416,-2.7363,-2.7379,-2.742,-2.7452,-2.7458,-2.7479,-2.7522,-2.753,-2.7495,-2.7565,-2.7577,-2.7629,-2.7649,-2.762,-2.7624,-2.7767,-2.7769,-2.7771,-2.777,0,0,0,0,0,0,-2.7275,-2.7292,-2.7312,-2.7363,-2.7381,-2.7461,-2.7453,-2.7461,-2.7487,-2.7488,-2.7537,-2.7544,-2.7565,-2.7622,-2.7634,-2.7655,-2.7628,-2.7766,-2.7768,-2.777,-2.7769,-2.7772,-2.7775,0,0,0,0,0,-2.7269,-2.7308,-2.7313,-2.7328,-2.7408,-2.7462,-2.7472,-2.7497,-2.7489,-2.7509,-2.7537,-2.7543,-2.7645,-2.7627,-2.7641,-2.7663,-2.7765,-2.7767,-2.777,-2.7767,-2.7771,-2.7775,0,0,0,0,0,0,-2.7257,-2.7315,-2.7322,-2.7379,-2.7415,-2.7465,-2.7491,-2.75,-2.7539,-2.7538,-2.7565,-2.7576,-2.7627,-2.7651,-2.763,-2.7715,-2.7704,-2.771,-2.7698,-2.7702,-2.7705,-2.7698,-2.7632,0,0,0,0,0,-2.7262,-2.7302,-2.735,-2.7395,-2.7414,-2.7449,-2.7474,-2.7489,-2.7528,-2.7544,-2.7575,-2.7612,-2.7652,-2.7678,-2.7718,-2.7772,-2.7783,-2.7795,-2.7797,-2.78,-2.7804,-2.7834,-2.784,-2.7781,-2.7781,-2.7781,0,0,-2.7271,-2.7307,-2.7331,-2.7394,-2.7424,-2.7465,-2.7462,-2.7505,-2.7535,-2.755,-2.7601,-2.7626,-2.7669,-2.7722,-2.7747,-2.7743,-2.7823,-2.7803,-2.7805,-2.7808,-2.7838,-2.7843,-2.7848,-2.7783,-2.7783,-2.7782,0,0,-2.7308,-2.734,-2.7381,-2.7412,-2.7458,-2.7481,-2.7491,-2.754,-2.7557,-2.7609,-2.7621,-2.7657,-2.7726,-2.7756,-2.778,-2.7828,-2.7835,-2.784,-2.7855,-2.7884,-2.7889,-2.7893,-2.791,-2.7916,-2.7844,-2.7844,-2.7844,0,-2.7313,-2.7375,-2.7401,-2.7443,-2.747,-2.7487,-2.7528,-2.7556,-2.7613,-2.7631,-2.7626,-2.7713,-2.7743,-2.7803,-2.7815,-2.7834,-2.7846,-2.7834,-2.7886,-2.7891,-2.7895,-2.7911,-2.7918,-2.7845,-2.7845,-2.7845,-2.7845,0,-2.7378,-2.7421,-2.7449,-2.7504,-2.7534,-2.7576,-2.7607,-2.7634,-2.7647,-2.7671,-2.7724,-2.776,-2.7807,-2.7823,-2.7836,-2.7885,-2.7881,-2.7881,-2.7871,-2.7901,-2.7916,-2.7923,-2.7845,-2.7845,-2.7845,-2.7845,0,0,-2.7411,-2.748,-2.7489,-2.7514,-2.7567,-2.76,-2.7641,-2.7689,-2.7711,-2.7749,-2.7785,-2.7843,-2.7843,-2.7871,-2.7887,-2.7912,-2.7947,-2.7909,-2.791,-2.7914,-2.8004,-2.8003,-2.801,-2.7952,-2.7954,-2.7955,-2.8,0,-2.7453,-2.753,-2.7555,-2.7618,-2.7657,-2.7673,-2.771,-2.7745,-2.7768,-2.7804,-2.783,-2.787,-2.7868,-2.7884,-2.791,-2.7938,-2.7966,-2.7935,-2.7985,-2.7986,-2.7973,-2.8018,-2.8018,-2.8059,-2.8006,-2.8007,-2.8008,0,-2.7514,-2.7554,-2.7621,-2.7668,-2.7686,-2.7718,-2.7763,-2.7798,-2.7838,-2.7853,-2.7883,-2.7898,-2.7941,-2.7929,-2.7989,-2.7967,-2.7989,-2.8006,-2.8008,-2.8013,-2.7999,-2.8024,-2.8073,-2.8079,-2.8018,-2.8017,-2.8017,0,-2.753,-2.7601,-2.765,-2.7671,-2.7727,-2.775,-2.7774,-2.7813,-2.784,-2.7879,-2.7896,-2.7939,-2.7962,-2.7995,-2.802,-2.8009,-2.8078,-2.8068,-2.8091,-2.809,-2.8104,-2.8103,-2.8157,-2.8119,-2.8119,-2.8119,-2.8119,0,-2.7575,-2.7616,-2.7658,-2.7689,-2.7734,-2.7762,-2.7806,-2.7831,-2.7865,-2.79,-2.7917,-2.7949,-2.798,-2.8016,-2.8036,-2.8082,-2.8093,-2.8106,-2.811,-2.8104,-2.8102,-2.8118,-2.8116,-2.812,-2.812,-2.812,-2.8119,0,-2.7601,-2.7631,-2.7686,-2.7735,-2.7748,-2.7779,-2.7821,-2.785,-2.7874,-2.7918,-2.793,-2.7967,-2.801,-2.8039,-2.8094,-2.8107,-2.8157,-2.8161,-2.8144,-2.8146,-2.8167,-2.8165,-2.8233,-2.8243,-2.8199,-2.8199,-2.8199,0,-2.7628,-2.7659,-2.7712,-2.7736,-2.7761,-2.7801,-2.7828,-2.7856,-2.7884,-2.7932,-2.7955,-2.8,-2.8037,-2.8105,-2.8137,-2.8179,-2.8184,-2.8205,-2.819,-2.8182,-2.8183,-2.8181,-2.8184,-2.8207,-2.8207,-2.8207,-2.8208,0,-2.7672,-2.7685,-2.7724,-2.7769,-2.7801,-2.7837,-2.7873,-2.7892,-2.7926,-2.7956,-2.8001,-2.803,-2.8086,-2.813,-2.8175,-2.8199,-2.8209,-2.8212,-2.8219,-2.8213,-2.8202,-2.8208,-2.815,-2.821,-2.821,-2.821,-2.821,-2.8209,-2.7699,-2.7728,-2.7769,-2.7812,-2.7842,-2.7875,-2.7905,-2.7933,-2.7971,-2.802,-2.8033,-2.808,-2.8119,-2.818,-2.8205,-2.8241,-2.8239,-2.825,-2.8253,-2.8255,-2.8255,-2.8196,-2.825,-2.825,-2.825,-2.825,-2.825,0,-2.7744,-2.7771,-2.781,-2.786,-2.7894,-2.7901,-2.7941,-2.7968,-2.8009,-2.8045,-2.8081,-2.8132,-2.8175,-2.8209,-2.8253,-2.8275,-2.8281,-2.8286,-2.8284,-2.8289,-2.8255,-2.8244,-2.828,-2.828,-2.828,-2.828,-2.828,-2.828,-2.7771,-2.782,-2.7838,-2.7901,-2.7928,-2.7974,-2.7996,-2.8027,-2.8055,-2.8112,-2.8148,-2.817,-2.8205,-2.8252,-2.8291,-2.83,-2.8315,-2.8319,-2.8328,-2.8295,-2.8292,-2.8288,-2.8278,-2.8322,-2.8322,-2.836,-2.836,-2.8361]},{"header":{"parameterUnit":"m.s-1","parameterCategory":1,"la1":30.2991,"la2":30.254,"lo1":-89.0895,"lo2":-89.0444,"dy":0.0017,"dx":0.0017,"nx":28,"ny":28,"refTime":"2024-08-27T21:00:00:Z","depth":0,"parameterNumber":3,"parameterNumberName":"V-component_of_WINDS"},"data":[0,0,0,0,0,0,0,0,0,0,0,0,0,0,0,0,0,0,0,0,0,0,0,0,0,0,0,0,0,0,0,0,0,0,0,0,0,0,0,0,0,0,0,0,0,0,0,0,0,0,0,0,0,0,0,0,0,0,2.3115,2.3114,0,2.3002,2.3001,2.2999,2.2884,2.2882,2.2881,2.2879,2.2756,2.2754,2.2752,0,0,0,0,0,0,0,0,0,0,0,0,0,2.3228,2.3226,2.3115,2.3114,2.3112,2.3002,2.3,2.2999,2.2884,2.2882,2.2881,2.2879,2.2756,2.2754,2.2752,0,0,0,0,0,0,0,0,0,0,0,0,0,2.3153,2.3226,2.3115,2.3042,2.3034,2.3002,2.3,2.2998,2.2885,2.2882,2.288,2.2878,2.2757,2.2754,2.2752,2.278,0,0,2.2743,2.2742,0,0,0,0,0,0,0,0,2.3157,2.3149,2.3054,2.3047,2.3038,2.2955,2.2994,2.2925,2.2885,2.2941,2.2879,2.2877,2.2823,2.2815,2.2798,2.2775,2.2769,2.2743,2.2741,2.274,2.2739,0,0,0,0,0,0,0,2.3163,2.3153,2.307,2.3053,2.3043,2.3013,2.3,2.2981,2.2896,2.2936,2.2928,2.2916,2.2818,2.2802,2.2795,2.2767,2.2743,2.274,2.2739,2.2738,2.2763,2.2765,0,0,0,0,0,0,2.318,2.3158,2.3074,2.3067,2.3094,2.3013,2.2998,2.2984,2.2896,2.2881,2.2918,2.2911,2.2807,2.2798,2.279,2.2818,2.274,2.2737,2.2736,2.276,2.2763,2.2766,0,0,0,0,0,0,2.3183,2.3173,2.3078,2.311,2.3096,2.3014,2.2998,2.2983,2.2966,2.2883,2.2867,2.2917,2.2805,2.2794,2.2784,2.2812,2.2736,2.2734,2.2758,2.2761,2.2764,2.2874,0,0,0,0,0,0,2.3186,2.3175,2.3186,2.3111,2.3095,2.3076,2.3,2.2982,2.2962,2.2952,2.2877,2.2862,2.2803,2.2789,2.2782,2.2807,2.2731,2.2755,2.2759,2.2763,2.2868,2.2881,2.2893,0,0,0,0,0,2.3191,2.3219,2.3187,2.3178,2.3107,2.3078,2.3068,2.3001,2.2965,2.2974,2.2922,2.2865,2.2811,2.2789,2.278,2.2804,2.2752,2.2758,2.2763,2.2862,2.2879,2.2892,0,0,0,0,0,0,2.3296,2.3208,2.3171,2.3177,2.3137,2.3059,2.3069,2.302,2.2987,2.2978,2.2894,2.2878,2.2879,2.2841,2.2818,2.2828,2.2774,2.2778,2.2853,2.2867,2.288,2.2887,2.2729,0,0,0,0,0,2.3321,2.3307,2.323,2.3242,2.3224,2.3151,2.3136,2.3088,2.3041,2.3023,2.2969,2.2924,2.2897,2.288,2.2851,2.2863,2.2845,2.2876,2.2888,2.2899,2.2902,2.2906,2.2918,2.2783,2.2783,2.2783,0,0,2.337,2.332,2.3316,2.3263,2.3225,2.3211,2.3137,2.3124,2.3112,2.302,2.3008,2.2968,2.2912,2.2914,2.2912,2.2882,2.2936,2.2906,2.2915,2.2911,2.2913,2.2925,2.2937,2.2787,2.2786,2.2785,0,0,2.3451,2.3414,2.342,2.3386,2.3332,2.3283,2.3286,2.3216,2.3187,2.3175,2.3105,2.309,2.3045,2.3008,2.2984,2.3058,2.3003,2.305,2.3113,2.3119,2.3129,2.3138,2.3163,2.3173,2.3054,2.3055,2.3055,0,2.3518,2.3496,2.3429,2.3422,2.34,2.332,2.3326,2.3295,2.3233,2.3219,2.3188,2.3132,2.3089,2.3082,2.31,2.3084,2.3082,2.3056,2.3134,2.3142,2.3149,2.3172,2.3182,2.306,2.306,2.3059,2.3059,0,2.3581,2.3567,2.3578,2.3525,2.3505,2.3504,2.3435,2.3423,2.3379,2.3334,2.3323,2.3269,2.3228,2.3224,2.3178,2.321,2.3194,2.315,2.3092,2.3169,2.3189,2.3198,2.3069,2.3067,2.3065,2.3064,0,0,2.3721,2.3634,2.3639,2.3614,2.3551,2.3538,2.3534,2.3497,2.3488,2.3449,2.3443,2.341,2.3369,2.3342,2.3293,2.3298,2.3359,2.3252,2.325,2.3273,2.339,2.3422,2.3433,2.3325,2.3326,2.3327,2.3394,0,2.3791,2.378,2.3722,2.3728,2.3714,2.364,2.3637,2.3597,2.3556,2.3537,2.349,2.3468,2.3417,2.34,2.3402,2.3351,2.3381,2.3346,2.3315,2.3315,2.3329,2.3444,2.3477,2.3542,2.3402,2.3403,2.3404,0,2.3869,2.3839,2.3845,2.3784,2.3776,2.3774,2.3737,2.372,2.3674,2.3644,2.3616,2.3562,2.3553,2.3503,2.3488,2.3466,2.3451,2.3425,2.3426,2.3417,2.3362,2.3437,2.3562,2.3571,2.3416,2.3415,2.3414,0,2.3969,2.393,2.3929,2.3911,2.384,2.384,2.3811,2.3763,2.3745,2.3712,2.3699,2.3665,2.3646,2.362,2.3558,2.3528,2.3551,2.3495,2.3523,2.3525,2.3528,2.3528,2.365,2.3523,2.3523,2.3523,2.3523,0,2.4051,2.4057,2.3974,2.3973,2.3978,2.3911,2.3917,2.388,2.3839,2.3828,2.3762,2.3753,2.3674,2.3656,2.3607,2.3602,2.3594,2.3568,2.3555,2.3573,2.3576,2.3559,2.3552,2.3526,2.3525,2.3525,2.3524,0,2.4162,2.4107,2.41,2.4036,2.402,2.4026,2.397,2.3966,2.3923,2.3911,2.3904,2.3835,2.3811,2.3748,2.3706,2.3674,2.3682,2.3659,2.3698,2.3689,2.372,2.3718,2.3834,2.3845,2.3714,2.3715,2.3716,0,2.4217,2.422,2.4158,2.4147,2.4121,2.4105,2.4088,2.4023,2.4008,2.3958,2.396,2.3931,2.3904,2.3869,2.3814,2.3783,2.3756,2.38,2.3751,2.3769,2.3755,2.3755,2.3754,2.3809,2.3811,2.3812,2.3813,0,2.4319,2.4292,2.4271,2.4242,2.4224,2.4197,2.4166,2.4161,2.4088,2.4074,2.405,2.403,2.399,2.3962,2.3923,2.389,2.3839,2.383,2.3835,2.3851,2.3874,2.3861,2.3725,2.3827,2.3825,2.3824,2.3824,2.3823,2.4401,2.4402,2.4359,2.4338,2.4309,2.4282,2.4276,2.4234,2.4214,2.4178,2.4141,2.4121,2.4077,2.4019,2.3991,2.3974,2.3947,2.3954,2.3955,2.3957,2.3965,2.388,2.3966,2.3966,2.3965,2.3965,2.3965,0,2.4499,2.4469,2.4451,2.4411,2.4396,2.4354,2.4318,2.4307,2.4291,2.4256,2.4232,2.4206,2.4179,2.4125,2.4093,2.409,2.4066,2.4084,2.4081,2.4075,2.3991,2.399,2.4104,2.4104,2.4104,2.4104,2.4103,2.4103,2.4548,2.4546,2.4515,2.4499,2.4468,2.445,2.4434,2.4409,2.438,2.4354,2.4333,2.4299,2.4256,2.4221,2.4195,2.4179,2.417,2.4195,2.4172,2.4094,2.408,2.4068,2.4066,2.4194,2.4194,2.4256,2.4257,2.4257]}]]